Wind_Speed
16 16 16 16 17 17 17 17 16 16 16 15 15 15 16 16 15 15 15 15 15 15 15 15 15 15 15 14 14 13 14 14 13 12 11 11 11 12
18 18 18 18 18 18 17 17 16 16 17 17 17 16 16 16 16 15 15 16 16 16 16 16 16 16 16 15 15 14 14 15 14 12 12 12 12 13
19 20 20 20 20 20 19 18 18 18 18 18 18 18 17 17 16 16 16 16 16 16 16 16 16 16 17 16 16 15 15 14 14 14 14 14 14 14
21 22 22 22 22 22 21 20 19 19 20 19 19 18 18 18 17 17 17 17 17 17 16 16 16 16 16 16 16 16 16 14 14 14 15 15 15 14
23 23 23 23 23 23 22 22 21 20 20 20 20 19 19 19 19 18 18 18 18 18 17 17 17 17 16 16 16 16 16 16 16 16 16 16 16 16
25 25 24 24 23 24 24 23 22 22 22 22 21 21 20 20 20 19 18 19 19 19 19 19 18 18 18 18 17 17 17 17 17 17 17 17 17 17
26 26 25 25 24 24 24 23 23 23 23 23 23 23 22 21 21 20 20 20 21 20 20 20 20 20 19 19 18 19 19 19 19 19 18 18 18 17
26 26 26 25 24 25 25 25 26 25 25 25 24 24 23 23 22 22 22 22 22 21 21 22 22 21 21 21 21 21 21 21 21 20 20 19 18 18
27 27 26 27 27 27 27 27 26 27 26 26 25 26 25 24 24 23 23 23 23 23 23 23 23 23 22 22 23 23 23 23 22 22 21 20 20 19
28 28 27 27 28 29 28 28 27 26 26 27 26 26 26 26 26 25 25 25 25 25 25 25 25 25 24 24 23 24 24 24 24 23 23 22 22 22
28 28 28 28 28 28 29 29 28 27 27 27 27 27 27 27 27 27 26 26 26 26 26 26 26 26 26 25 25 25 25 25 25 25 24 24 23 23
28 28 28 29 29 29 29 29 29 29 29 29 29 28 27 27 27 27 26 26 26 26 26 27 27 27 27 27 27 27 27 27 26 26 26 26 25 25
29 29 29 29 29 29 29 29 29 29 29 28 28 27 27 27 28 28 27 26 26 26 27 27 27 27 27 28 28 29 28 28 28 28 27 27 27 27
28 28 28 29 29 29 28 29 29 29 29 29 29 28 28 28 28 28 27 27 26 26 26 27 27 27 27 28 28 29 29 30 30 30 29 29 29 28
28 27 27 27 28 28 28 28 28 29 29 29 29 29 28 28 28 27 27 27 27 27 27 27 27 27 27 27 28 28 29 29 30 30 30 29 29 29
27 27 27 27 27 27 27 28 28 28 29 29 29 29 30 29 29 29 28 28 28 28 28 28 28 28 28 28 27 27 28 29 29 29 29 29 30 30
27 27 27 27 27 27 27 28 29 29 30 29 29 30 30 30 30 30 29 29 29 30 30 29 29 29 29 29 29 28 28 28 29 29 29 29 29 29
27 27 27 27 27 27 27 28 29 30 30 30 29 29 29 29 30 30 30 30 30 31 31 31 31 30 30 30 30 30 29 28 28 28 28 28 28 28
28 27 27 27 26 26 27 27 27 28 29 29 29 30 31 31 32 32 32 32 31 31 31 32 32 31 30 30 30 30 30 29 29 29 29 29 28 28
28 27 27 27 27 27 26 27 27 27 28 29 30 30 31 31 32 32 32 32 32 32 32 32 32 32 31 30 30 31 31 30 30 30 30 30 29 29
28 27 27 28 28 28 28 28 28 28 29 29 30 30 31 32 32 32 33 33 33 33 33 32 32 32 31 31 31 31 31 31 31 31 31 31 30 30
28 28 28 29 29 29 29 29 29 30 30 30 31 32 32 33 33 34 34 33 33 33 33 32 32 32 32 31 31 31 31 31 32 32 32 31 32 31
29 29 28 29 30 30 30 30 31 31 31 31 32 33 33 33 33 33 33 34 34 33 34 33 33 33 33 32 31 31 31 32 32 32 33 33 33 32
Wind_Direction
283 284 283 282 282 280 277 278 277 275 276 276 274 272 271 270 274 272 269 268 269 269 268 267 268 270 272 274 273 273 275 278 281 283 283 283 285 286
280 282 282 281 281 279 277 275 276 276 277 275 274 272 270 270 270 272 272 271 271 270 267 267 268 271 272 271 271 274 275 274 277 279 282 284 285 286
282 281 280 280 280 279 276 275 274 274 275 274 274 271 269 268 269 270 270 270 270 270 269 267 269 270 269 270 270 271 272 273 274 278 279 281 284 286
281 281 279 279 279 278 276 275 274 274 273 272 273 272 268 266 267 267 267 267 268 267 269 269 268 270 270 270 271 269 270 273 275 279 280 280 283 284
279 280 279 279 278 275 275 276 274 273 273 272 271 271 269 266 265 266 267 268 268 266 267 266 266 266 270 272 274 272 273 273 275 277 280 280 281 282
279 278 278 277 276 273 274 274 272 272 272 272 272 270 269 267 266 266 268 268 267 265 265 266 267 266 268 270 273 273 274 274 275 276 279 282 281 280
276 276 275 274 273 271 271 272 273 272 269 269 271 270 269 269 267 266 268 269 268 265 264 265 265 266 266 266 269 272 273 274 277 277 277 279 278 279
276 276 274 272 271 271 269 270 271 271 269 267 268 269 267 266 267 267 269 268 268 267 265 265 265 265 266 266 267 270 272 274 276 276 277 278 276 276
277 277 274 271 270 270 269 268 269 270 269 267 266 266 266 265 265 265 267 267 268 268 265 264 263 264 266 268 268 270 272 274 276 274 274 273 274 276
277 276 274 273 271 269 269 269 269 269 268 266 265 264 262 263 265 266 266 266 266 266 265 264 262 262 265 266 268 270 270 271 272 272 272 271 272 274
276 276 275 275 273 270 269 268 267 267 267 266 266 266 264 264 264 265 267 266 266 266 265 264 263 263 264 266 267 268 269 269 269 269 270 269 271 273
277 277 276 274 273 271 270 269 269 268 268 268 267 268 265 265 265 265 265 266 265 265 264 263 263 263 264 265 266 266 267 267 267 268 269 269 270 272
279 277 275 273 271 271 270 269 269 269 268 267 267 266 264 265 266 265 263 265 266 267 265 264 264 264 266 266 265 266 266 266 267 267 268 269 270 270
279 277 274 272 271 271 271 270 269 268 268 267 266 266 267 267 267 264 261 263 265 266 265 264 264 265 268 268 267 266 267 268 268 268 268 268 268 269
279 277 275 274 273 272 270 270 269 269 268 267 267 266 267 267 266 264 261 262 264 265 266 265 266 267 269 270 271 269 268 269 269 269 269 268 267 267
278 278 277 276 274 273 270 269 269 269 267 266 267 267 266 266 265 265 264 263 264 266 266 266 267 267 269 270 271 271 271 270 269 269 269 268 266 267
277 278 277 276 275 273 272 271 270 270 269 268 268 268 266 264 264 265 265 264 265 266 266 267 267 268 269 270 270 272 271 271 270 270 269 268 267 267
278 278 278 277 275 273 273 272 271 270 269 269 268 268 266 264 265 265 265 266 267 267 267 266 267 268 269 270 270 270 271 271 271 269 268 268 268 269
277 277 277 277 275 274 274 274 273 270 268 268 268 267 266 266 265 265 266 267 268 268 267 266 266 267 268 269 269 269 269 269 270 269 268 268 269 271
275 275 276 276 276 275 274 275 274 273 271 270 268 267 267 266 265 265 266 267 267 267 268 267 266 266 267 267 267 269 270 269 268 268 268 268 269 270
274 274 275 275 276 275 275 275 275 274 272 271 269 268 268 268 267 267 267 267 266 266 266 267 266 265 266 266 266 268 268 268 268 267 268 268 268 269
273 274 275 277 277 276 276 276 275 274 273 272 271 270 270 269 269 269 268 267 266 265 265 265 264 264 265 266 267 267 267 267 267 267 268 268 269 269
273 275 276 277 278 278 277 276 275 276 275 274 273 271 270 269 269 269 269 268 266 266 266 265 265 265 266 267 268 267 267 267 266 268 269 268 268 268
Height
5837 5837 5836 5836 5835 5835 5834 5834 5834 5833 5833 5832 5832 5832 5832 5832 5832 5832 5832 5832 5832 5832 5832 5833 5833 5833 5833 5833 5833 5833 5832 5832 5831 5830 5830 5829 5828 5828
5832 5832 5832 5831 5830 5830 5830 5829 5829 5829 5829 5828 5828 5828 5827 5827 5828 5828 5828 5828 5828 5828 5828 5828 5829 5829 5829 5829 5829 5829 5829 5828 5828 5827 5827 5826 5825 5824
5828 5827 5827 5826 5825 5825 5825 5824 5824 5824 5824 5824 5823 5823 5823 5823 5823 5823 5823 5823 5824 5824 5824 5824 5824 5825 5825 5825 5825 5825 5825 5825 5824 5824 5823 5823 5822 5821
5822 5822 5821 5821 5820 5820 5819 5819 5819 5819 5819 5818 5818 5818 5818 5818 5818 5819 5819 5819 5819 5820 5820 5820 5820 5820 5820 5820 5821 5821 5821 5821 5821 5820 5820 5819 5818 5817
5816 5816 5815 5815 5814 5814 5813 5813 5813 5813 5813 5813 5813 5813 5813 5813 5813 5814 5814 5814 5815 5815 5815 5815 5816 5816 5816 5816 5817 5817 5817 5817 5817 5816 5816 5815 5814 5813
5810 5809 5809 5808 5808 5807 5807 5807 5807 5807 5807 5807 5807 5807 5807 5808 5808 5809 5809 5809 5809 5810 5810 5810 5811 5811 5811 5812 5812 5812 5812 5812 5812 5812 5811 5810 5809 5808
5803 5802 5802 5801 5801 5801 5801 5801 5800 5800 5801 5801 5801 5801 5801 5802 5803 5803 5804 5804 5804 5804 5804 5805 5805 5806 5806 5806 5807 5807 5807 5807 5807 5807 5806 5805 5805 5804
5795 5795 5794 5794 5794 5794 5794 5794 5794 5794 5794 5794 5795 5795 5795 5796 5796 5797 5797 5797 5798 5798 5798 5799 5799 5800 5800 5801 5801 5801 5801 5801 5801 5801 5801 5800 5799 5799
5788 5787 5786 5786 5786 5786 5786 5787 5787 5787 5787 5787 5788 5788 5788 5789 5789 5790 5790 5791 5791 5791 5792 5792 5793 5794 5794 5794 5795 5795 5795 5795 5795 5795 5795 5794 5794 5794
5780 5779 5779 5778 5778 5778 5778 5779 5779 5779 5779 5780 5781 5781 5781 5781 5782 5783 5783 5784 5784 5784 5785 5786 5786 5787 5787 5787 5788 5788 5788 5788 5788 5788 5788 5788 5788 5787
5771 5770 5770 5770 5770 5769 5770 5771 5771 5771 5772 5772 5773 5773 5773 5774 5774 5775 5776 5776 5777 5777 5777 5778 5779 5779 5780 5780 5780 5780 5780 5781 5781 5781 5781 5781 5781 5781
5762 5762 5762 5761 5761 5761 5761 5762 5763 5763 5764 5764 5764 5765 5765 5766 5767 5767 5768 5768 5769 5770 5770 5770 5771 5771 5772 5772 5772 5772 5772 5773 5773 5773 5773 5774 5773 5773
5754 5753 5753 5752 5752 5752 5753 5753 5754 5755 5755 5756 5756 5757 5757 5758 5759 5759 5760 5760 5761 5762 5762 5762 5762 5762 5763 5764 5764 5764 5764 5764 5764 5764 5765 5765 5765 5765
5745 5744 5744 5743 5743 5744 5744 5745 5745 5746 5746 5747 5748 5748 5749 5750 5750 5751 5752 5752 5753 5753 5753 5753 5754 5755 5755 5755 5755 5755 5755 5755 5755 5755 5755 5756 5756 5757
5737 5736 5735 5735 5735 5735 5735 5736 5736 5737 5737 5738 5739 5740 5741 5741 5742 5743 5743 5744 5745 5745 5745 5745 5746 5746 5746 5746 5746 5746 5746 5745 5744 5744 5745 5745 5747 5747
5728 5727 5727 5727 5727 5726 5727 5727 5728 5728 5729 5730 5731 5731 5732 5733 5733 5734 5735 5735 5736 5737 5737 5737 5737 5738 5738 5738 5738 5737 5737 5736 5735 5735 5736 5736 5737 5738
5720 5720 5719 5719 5718 5718 5718 5719 5719 5719 5720 5721 5721 5722 5723 5724 5724 5725 5726 5726 5727 5728 5728 5728 5729 5729 5729 5730 5729 5729 5728 5728 5727 5727 5727 5727 5728 5729
5712 5711 5711 5710 5710 5710 5710 5710 5710 5710 5711 5711 5712 5713 5714 5714 5715 5716 5716 5717 5718 5719 5719 5719 5719 5720 5720 5721 5721 5720 5720 5719 5719 5718 5719 5719 5720 5720
5703 5703 5702 5702 5701 5701 5701 5701 5701 5701 5701 5702 5702 5703 5704 5704 5705 5706 5707 5707 5708 5709 5709 5709 5710 5710 5711 5712 5711 5711 5711 5710 5710 5710 5710 5711 5711 5711
5694 5694 5694 5693 5693 5693 5692 5692 5692 5692 5692 5692 5692 5693 5694 5694 5694 5695 5696 5697 5698 5698 5698 5699 5699 5700 5701 5702 5702 5701 5701 5701 5701 5701 5702 5702 5702 5702
5685 5685 5685 5685 5684 5684 5683 5683 5683 5683 5682 5682 5683 5683 5683 5683 5684 5684 5685 5686 5687 5687 5688 5689 5689 5689 5690 5691 5691 5692 5691 5690 5690 5691 5691 5692 5692 5693
5676 5676 5676 5675 5675 5674 5674 5673 5673 5673 5672 5672 5672 5672 5673 5673 5673 5673 5673 5674 5675 5676 5677 5678 5678 5679 5679 5680 5681 5681 5681 5680 5680 5680 5681 5682 5682 5682
5667 5667 5667 5666 5665 5665 5664 5663 5663 5663 5662 5662 5661 5661 5661 5661 5661 5661 5662 5663 5664 5665 5666 5667 5667 5668 5668 5669 5670 5670 5670 5670 5670 5670 5671 5671 5671 5671